Time,TemperatureF,DewpointF,PressureIn,WindDirection,WindDirectionDegrees,WindSpeedMPH,WindSpeedGustMPH,Humidity,HourlyPrecipIn,Conditions,Clouds,dailyrainin,SoftwareType,DateUTC
2013-02-16 00:00:00,35.6,35.6,29.99,SSE,150,0.0,0.0,100,0.00,CLR,,0.00,WeatherDisplay:10.37,2013-02-16 05:00:00,
2013-02-16 00:05:00,35.6,35.6,29.99,SSE,150,0.0,0.0,100,0.00,CLR,,0.00,WeatherDisplay:10.37,2013-02-16 05:05:00,
2013-02-16 00:10:00,35.6,35.6,29.98,SSE,150,0.0,0.0,100,0.00,CLR,,0.00,WeatherDisplay:10.37,2013-02-16 05:10:00,
2013-02-16 00:15:00,35.6,35.6,29.98,SSE,150,0.0,0.0,100,0.00,CLR,,0.00,WeatherDisplay:10.37,2013-02-16 05:15:00,
2013-02-16 00:20:00,35.6,35.6,29.98,SSE,150,0.0,0.0,100,0.00,CLR,,0.00,WeatherDisplay:10.37,2013-02-16 05:20:00,
2013-02-16 00:23:00,35.6,35.6,29.98,SSE,150,0.0,0.0,100,0.00,CLR,,0.00,WeatherDisplay:10.37,2013-02-16 05:23:00,
2013-02-16 00:28:00,35.6,35.6,29.98,SSE,150,0.0,0.0,100,0.00,CLR,,0.00,WeatherDisplay:10.37,2013-02-16 05:28:00,
2013-02-16 00:33:00,37.4,37.4,29.98,SSE,150,0.0,0.0,100,0.00,CLR,,0.00,WeatherDisplay:10.37,2013-02-16 05:33:00,
2013-02-16 00:38:00,37.4,37.4,29.98,SSE,150,0.0,0.0,100,0.00,CLR,,0.00,WeatherDisplay:10.37,2013-02-16 05:38:00,
2013-02-16 00:43:00,37.4,37.4,29.98,SSE,150,0.0,0.0,100,0.00,CLR,,0.00,WeatherDisplay:10.37,2013-02-16 05:43:00,
2013-02-16 00:48:00,37.4,37.4,29.98,SSE,150,0.0,0.0,100,0.00,CLR,,0.00,WeatherDisplay:10.37,2013-02-16 05:48:00,
2013-02-16 00:53:00,35.6,35.6,29.98,SSE,150,0.0,0.0,100,0.00,CLR,,0.00,WeatherDisplay:10.37,2013-02-16 05:53:00,
2013-02-16 00:58:00,35.6,35.6,29.98,SSE,150,0.0,0.0,100,0.00,CLR,,0.00,WeatherDisplay:10.37,2013-02-16 05:58:00,
2013-02-16 01:03:00,35.6,35.6,29.97,SSE,150,0.0,0.0,100,0.00,CLR,,0.00,WeatherDisplay:10.37,2013-02-16 06:03:00,
2013-02-16 01:08:00,35.6,35.6,29.97,SSE,150,0.0,0.0,100,0.00,CLR,,0.00,WeatherDisplay:10.37,2013-02-16 06:08:00,
2013-02-16 01:13:00,35.6,35.6,29.97,SSE,150,0.0,0.0,100,0.00,CLR,,0.00,WeatherDisplay:10.37,2013-02-16 06:13:00,
2013-02-16 01:18:00,35.6,35.6,29.97,SSE,150,0.0,0.0,100,0.00,CLR,,0.00,WeatherDisplay:10.37,2013-02-16 06:18:00,
2013-02-16 01:23:00,35.6,35.6,29.97,SSE,150,0.0,0.0,100,0.00,CLR,,0.00,WeatherDisplay:10.37,2013-02-16 06:23:00,
2013-02-16 01:28:00,35.6,35.6,29.97,SSE,150,0.0,0.0,100,0.00,CLR,,0.00,WeatherDisplay:10.37,2013-02-16 06:28:00,
2013-02-16 01:33:00,35.6,35.6,29.97,SSE,150,0.0,0.0,100,0.00,CLR,,0.00,WeatherDisplay:10.37,2013-02-16 06:33:00,
2013-02-16 01:38:00,35.6,35.6,29.97,SSE,150,0.0,0.0,100,0.00,CLR,,0.00,WeatherDisplay:10.37,2013-02-16 06:38:00,
2013-02-16 01:43:00,35.6,35.6,29.97,SSE,150,0.0,0.0,100,0.00,CLR,,0.00,WeatherDisplay:10.37,2013-02-16 06:43:00,
2013-02-16 01:48:00,35.6,35.6,29.97,SSE,150,0.0,0.0,100,0.00,CLR,,0.00,WeatherDisplay:10.37,2013-02-16 06:48:00,
2013-02-16 01:53:00,35.6,35.6,29.97,SSE,150,0.0,0.0,100,0.00,CLR,,0.00,WeatherDisplay:10.37,2013-02-16 06:53:00,
2013-02-16 01:58:00,35.6,35.6,29.97,SSE,150,0.0,0.0,100,0.00,CLR,,0.00,WeatherDisplay:10.37,2013-02-16 06:58:00,
2013-02-16 02:03:00,35.6,35.6,29.96,SSE,150,0.0,0.0,100,0.00,CLR,,0.00,WeatherDisplay:10.37,2013-02-16 07:03:00,
2013-02-16 02:08:00,35.6,35.6,29.96,SSE,150,0.0,0.0,100,0.00,CLR,,0.00,WeatherDisplay:10.37,2013-02-16 07:08:00,
2013-02-16 02:13:00,35.6,35.6,29.96,SSE,150,0.0,0.0,100,0.00,CLR,,0.00,WeatherDisplay:10.37,2013-02-16 07:13:00,
2013-02-16 02:18:00,35.6,35.6,29.96,SSE,150,0.0,0.0,100,0.00,CLR,,0.00,WeatherDisplay:10.37,2013-02-16 07:18:00,
2013-02-16 02:23:00,35.6,35.6,29.96,SSE,150,0.0,0.0,100,0.00,CLR,,0.00,WeatherDisplay:10.37,2013-02-16 07:23:00,
2013-02-16 02:28:00,35.6,35.6,29.96,SSE,150,0.0,0.0,100,0.00,CLR,,0.00,WeatherDisplay:10.37,2013-02-16 07:28:00,
2013-02-16 02:33:00,37.4,37.4,29.96,SW,230,3.5,3.5,100,0.00,CLR,,0.00,WeatherDisplay:10.37,2013-02-16 07:33:00,
2013-02-16 02:38:00,37.4,37.4,29.96,SW,230,3.5,3.5,100,0.00,CLR,,0.00,WeatherDisplay:10.37,2013-02-16 07:38:00,
2013-02-16 02:43:00,37.4,37.4,29.96,SW,230,0.0,0.0,100,0.00,CLR,,0.00,WeatherDisplay:10.37,2013-02-16 07:43:00,
2013-02-16 02:48:00,37.4,37.4,29.96,SW,230,0.0,0.0,100,0.00,CLR,,0.00,WeatherDisplay:10.37,2013-02-16 07:48:00,
2013-02-16 02:53:00,37.4,37.4,29.96,SW,230,0.0,0.0,100,0.00,CLR,,0.00,WeatherDisplay:10.37,2013-02-16 07:53:00,
2013-02-16 02:58:00,37.4,37.4,29.96,SW,230,0.0,0.0,100,0.00,CLR,,0.00,WeatherDisplay:10.37,2013-02-16 07:58:00,
2013-02-16 03:03:00,37.4,37.4,29.96,SW,230,0.0,0.0,100,0.00,CLR,,0.00,WeatherDisplay:10.37,2013-02-16 08:03:00,
2013-02-16 03:08:00,37.4,37.4,29.96,SW,230,0.0,0.0,100,0.00,CLR,,0.00,WeatherDisplay:10.37,2013-02-16 08:08:00,
2013-02-16 03:13:00,37.4,37.4,29.95,SW,230,0.0,0.0,100,0.00,CLR,,0.00,WeatherDisplay:10.37,2013-02-16 08:13:00,
2013-02-16 03:18:00,37.4,37.4,29.95,SW,230,0.0,0.0,100,0.00,CLR,,0.00,WeatherDisplay:10.37,2013-02-16 08:18:00,
2013-02-16 03:23:00,37.4,37.4,29.95,SW,230,0.0,0.0,100,0.00,CLR,,0.00,WeatherDisplay:10.37,2013-02-16 08:23:00,
2013-02-16 03:28:00,37.4,37.4,29.95,SW,230,0.0,0.0,100,0.00,CLR,,0.00,WeatherDisplay:10.37,2013-02-16 08:28:00,
2013-02-16 03:33:00,37.4,37.4,29.94,SW,230,0.0,0.0,100,0.00,CLR,,0.00,WeatherDisplay:10.37,2013-02-16 08:33:00,
2013-02-16 03:38:00,37.4,37.4,29.94,SW,230,0.0,0.0,100,0.00,CLR,,0.00,WeatherDisplay:10.37,2013-02-16 08:38:00,
2013-02-16 03:43:00,41.0,41.0,29.93,WSW,240,3.5,3.5,100,0.00,CLR,,0.00,WeatherDisplay:10.37,2013-02-16 08:43:00,
2013-02-16 03:48:00,41.0,41.0,29.93,WSW,240,3.5,3.5,100,0.00,CLR,,0.00,WeatherDisplay:10.37,2013-02-16 08:48:00,
2013-02-16 03:53:00,37.4,37.4,29.94,WSW,240,0.0,0.0,100,0.00,CLR,,0.00,WeatherDisplay:10.37,2013-02-16 08:53:00,
2013-02-16 03:58:00,37.4,37.4,29.94,WSW,240,0.0,0.0,100,0.00,CLR,,0.00,WeatherDisplay:10.37,2013-02-16 08:58:00,
2013-02-16 04:03:00,41.0,41.0,29.93,WSW,240,3.5,3.5,100,0.00,CLR,,0.00,WeatherDisplay:10.37,2013-02-16 09:03:00,
2013-02-16 04:08:00,41.0,41.0,29.93,WSW,240,3.5,3.5,100,0.00,CLR,,0.00,WeatherDisplay:10.37,2013-02-16 09:08:00,
2013-02-16 04:13:00,39.2,39.2,29.92,SW,230,3.5,3.5,100,0.00,CLR,,0.00,WeatherDisplay:10.37,2013-02-16 09:13:00,
2013-02-16 04:18:00,39.2,39.2,29.92,SW,230,3.5,3.5,100,0.00,CLR,,0.00,WeatherDisplay:10.37,2013-02-16 09:18:00,
2013-02-16 04:23:00,39.2,39.2,29.92,SW,230,3.5,3.5,100,0.00,CLR,,0.00,WeatherDisplay:10.37,2013-02-16 09:23:00,
2013-02-16 04:28:00,39.2,39.2,29.92,SW,230,3.5,3.5,100,0.00,CLR,,0.00,WeatherDisplay:10.37,2013-02-16 09:28:00,
2013-02-16 04:33:00,37.4,37.4,29.91,SW,230,0.0,0.0,100,0.00,CLR,,0.00,WeatherDisplay:10.37,2013-02-16 09:33:00,
2013-02-16 04:38:00,37.4,37.4,29.91,SW,230,0.0,0.0,100,0.00,CLR,,0.00,WeatherDisplay:10.37,2013-02-16 09:38:00,
2013-02-16 04:43:00,37.4,37.4,29.91,SW,230,0.0,0.0,100,0.00,CLR,,0.00,WeatherDisplay:10.37,2013-02-16 09:43:00,
2013-02-16 04:48:00,37.4,37.4,29.91,SW,230,0.0,0.0,100,0.00,CLR,,0.00,WeatherDisplay:10.37,2013-02-16 09:48:00,
2013-02-16 04:53:00,37.4,37.4,29.91,SW,230,0.0,0.0,100,0.00,CLR,,0.00,WeatherDisplay:10.37,2013-02-16 09:53:00,
2013-02-16 04:58:00,37.4,37.4,29.91,SW,230,0.0,0.0,100,0.00,CLR,,0.00,WeatherDisplay:10.37,2013-02-16 09:58:00,
2013-02-16 05:03:00,37.4,37.4,29.90,WSW,240,3.5,3.5,100,0.00,CLR,,0.00,WeatherDisplay:10.37,2013-02-16 10:03:00,
2013-02-16 05:08:00,37.4,37.4,29.90,WSW,240,3.5,3.5,100,0.00,CLR,,0.00,WeatherDisplay:10.37,2013-02-16 10:08:00,
2013-02-16 05:13:00,37.4,37.4,29.90,West,260,4.6,4.6,100,0.00,CLR,,0.00,WeatherDisplay:10.37,2013-02-16 10:13:00,
2013-02-16 05:18:00,37.4,37.4,29.90,West,260,4.6,4.6,100,0.00,CLR,,0.00,WeatherDisplay:10.37,2013-02-16 10:18:00,
2013-02-16 05:23:00,37.4,37.4,29.90,West,260,4.6,4.6,100,0.00,CLR,,0.00,WeatherDisplay:10.37,2013-02-16 10:23:00,
2013-02-16 05:28:00,37.4,37.4,29.90,West,260,4.6,4.6,100,0.00,CLR,,0.00,WeatherDisplay:10.37,2013-02-16 10:28:00,
2013-02-16 05:33:00,41.0,41.0,29.91,WNW,290,5.8,5.8,100,0.00,CLR,,0.00,WeatherDisplay:10.37,2013-02-16 10:33:00,
2013-02-16 05:38:00,41.0,41.0,29.91,WNW,290,5.8,5.8,100,0.00,CLR,,0.00,WeatherDisplay:10.37,2013-02-16 10:38:00,
2013-02-16 05:43:00,41.0,41.0,29.91,West,280,6.9,6.9,100,0.00,CLR,,0.00,WeatherDisplay:10.37,2013-02-16 10:43:00,
2013-02-16 05:48:00,41.0,41.0,29.91,West,280,6.9,6.9,100,0.00,CLR,,0.00,WeatherDisplay:10.37,2013-02-16 10:48:00,
2013-02-16 05:53:00,41.0,41.0,29.91,West,280,6.9,6.9,100,0.00,CLR,,0.00,WeatherDisplay:10.37,2013-02-16 10:53:00,
2013-02-16 05:58:00,41.0,41.0,29.91,West,280,6.9,6.9,100,0.00,CLR,,0.00,WeatherDisplay:10.37,2013-02-16 10:58:00,
2013-02-16 06:03:00,41.0,41.0,29.90,WNW,290,3.5,3.5,100,0.00,CLR,,0.00,WeatherDisplay:10.37,2013-02-16 11:03:00,
2013-02-16 06:08:00,41.0,41.0,29.90,WNW,290,3.5,3.5,100,0.00,CLR,,0.00,WeatherDisplay:10.37,2013-02-16 11:08:00,
2013-02-16 06:13:00,41.0,41.0,29.90,WNW,290,3.5,3.5,100,0.00,CLR,,0.00,WeatherDisplay:10.37,2013-02-16 11:13:00,
2013-02-16 06:18:00,41.0,41.0,29.90,WNW,290,3.5,3.5,100,0.00,CLR,,0.00,WeatherDisplay:10.37,2013-02-16 11:18:00,
2013-02-16 06:23:00,39.2,39.2,29.90,West,280,3.5,3.5,100,0.00,CLR,,0.00,WeatherDisplay:10.37,2013-02-16 11:23:00,
2013-02-16 06:28:00,39.2,39.2,29.90,West,280,3.5,3.5,100,0.00,CLR,,0.00,WeatherDisplay:10.37,2013-02-16 11:28:00,
2013-02-16 06:33:00,39.2,39.2,29.90,West,280,3.5,3.5,100,0.00,CLR,,0.00,WeatherDisplay:10.37,2013-02-16 11:33:00,
2013-02-16 06:38:00,39.2,39.2,29.90,West,280,3.5,3.5,100,0.00,CLR,,0.00,WeatherDisplay:10.37,2013-02-16 11:38:00,
2013-02-16 06:43:00,39.2,39.2,29.90,West,280,3.5,3.5,100,0.00,CLR,,0.00,WeatherDisplay:10.37,2013-02-16 11:43:00,
2013-02-16 06:48:00,39.2,39.2,29.90,West,280,3.5,3.5,100,0.00,CLR,,0.00,WeatherDisplay:10.37,2013-02-16 11:48:00,
2013-02-16 06:53:00,39.2,39.2,29.90,West,280,3.5,3.5,100,0.00,CLR,,0.00,WeatherDisplay:10.37,2013-02-16 11:53:00,
2013-02-16 06:58:00,39.2,39.2,29.90,West,280,3.5,3.5,100,0.00,CLR,,0.00,WeatherDisplay:10.37,2013-02-16 11:58:00,
2013-02-16 07:03:00,37.4,37.4,29.90,West,280,0.0,0.0,100,0.00,CLR,,0.00,WeatherDisplay:10.37,2013-02-16 12:03:00,
2013-02-16 07:08:00,37.4,37.4,29.90,West,280,0.0,0.0,100,0.00,CLR,,0.00,WeatherDisplay:10.37,2013-02-16 12:08:00,
2013-02-16 07:13:00,37.4,37.4,29.90,West,280,0.0,0.0,100,0.00,CLR,,0.00,WeatherDisplay:10.37,2013-02-16 12:13:00,
2013-02-16 07:18:00,37.4,37.4,29.90,West,280,0.0,0.0,100,0.00,CLR,,0.00,WeatherDisplay:10.37,2013-02-16 12:18:00,
2013-02-16 07:23:00,35.6,35.6,29.90,West,280,0.0,0.0,100,0.00,,,0.00,WeatherDisplay:10.37,2013-02-16 12:23:00,
2013-02-16 07:28:00,35.6,35.6,29.90,West,280,0.0,0.0,100,0.00,CLR,,0.00,WeatherDisplay:10.37,2013-02-16 12:28:00,
2013-02-16 07:33:00,35.6,35.6,29.90,West,280,0.0,0.0,100,0.00,,,0.00,WeatherDisplay:10.37,2013-02-16 12:33:00,
2013-02-16 07:38:00,35.6,35.6,29.90,West,280,0.0,0.0,100,0.00,,,0.00,WeatherDisplay:10.37,2013-02-16 12:38:00,
2013-02-16 07:43:00,35.6,35.6,29.90,West,280,0.0,0.0,100,0.00,CLR,,0.00,WeatherDisplay:10.37,2013-02-16 12:43:00,
2013-02-16 07:48:00,35.6,35.6,29.90,West,280,0.0,0.0,100,0.00,,,0.00,WeatherDisplay:10.37,2013-02-16 12:48:00,
2013-02-16 07:53:00,35.6,35.6,29.90,West,280,0.0,0.0,100,0.00,,,0.00,WeatherDisplay:10.37,2013-02-16 12:53:00,
2013-02-16 07:58:00,35.6,35.6,29.90,West,280,0.0,0.0,100,0.00,CLR,,0.00,WeatherDisplay:10.37,2013-02-16 12:58:00,
2013-02-16 08:03:00,35.6,35.6,29.89,West,280,0.0,0.0,100,0.00,CLR,,0.00,WeatherDisplay:10.37,2013-02-16 13:03:00,
2013-02-16 08:08:00,35.6,35.6,29.89,West,280,0.0,0.0,100,0.00,CLR,,0.00,WeatherDisplay:10.37,2013-02-16 13:08:00,
2013-02-16 08:13:00,35.6,35.6,29.89,West,280,0.0,0.0,100,0.00,CLR,,0.00,WeatherDisplay:10.37,2013-02-16 13:13:00,
2013-02-16 08:18:00,35.6,35.6,29.89,West,280,0.0,0.0,100,0.00,CLR,,0.00,WeatherDisplay:10.37,2013-02-16 13:18:00,
2013-02-16 08:23:00,37.4,37.4,29.88,West,280,0.0,0.0,100,0.00,CLR,,0.00,WeatherDisplay:10.37,2013-02-16 13:23:00,
2013-02-16 08:28:00,37.4,37.4,29.88,West,280,0.0,0.0,100,0.00,CLR,,0.00,WeatherDisplay:10.37,2013-02-16 13:28:00,
2013-02-16 08:33:00,41.0,41.0,29.88,West,280,0.0,0.0,100,0.00,CLR,,0.00,WeatherDisplay:10.37,2013-02-16 13:33:00,
2013-02-16 08:38:00,41.0,41.0,29.88,West,280,0.0,0.0,100,0.00,CLR,,0.00,WeatherDisplay:10.37,2013-02-16 13:38:00,
2013-02-16 08:43:00,41.0,41.0,29.88,West,280,0.0,0.0,100,0.00,CLR,,0.00,WeatherDisplay:10.37,2013-02-16 13:43:00,
2013-02-16 08:48:00,41.0,41.0,29.88,West,280,0.0,0.0,100,0.00,CLR,,0.00,WeatherDisplay:10.37,2013-02-16 13:48:00,
2013-02-16 08:53:00,44.6,44.6,29.88,NW,320,5.8,5.8,100,0.00,CLR,,0.00,WeatherDisplay:10.37,2013-02-16 13:53:00,
2013-02-16 08:58:00,44.6,44.6,29.88,NW,320,5.8,5.8,100,0.00,CLR,,0.00,WeatherDisplay:10.37,2013-02-16 13:58:00,
2013-02-16 09:03:00,44.6,44.6,29.88,NW,320,5.8,5.8,100,0.00,CLR,,0.00,WeatherDisplay:10.37,2013-02-16 14:03:00,
2013-02-16 09:08:00,44.6,44.6,29.88,NW,320,5.8,5.8,100,0.00,CLR,,0.00,WeatherDisplay:10.37,2013-02-16 14:08:00,
2013-02-16 09:13:00,44.6,44.6,29.88,NNW,340,6.9,6.9,100,0.00,CLR,,0.00,WeatherDisplay:10.37,2013-02-16 14:13:00,
2013-02-16 09:18:00,44.6,44.6,29.88,NNW,340,6.9,6.9,100,0.00,CLR,,0.00,WeatherDisplay:10.37,2013-02-16 14:18:00,
2013-02-16 09:23:00,44.6,44.6,29.88,NNW,340,6.9,6.9,100,0.00,CLR,,0.00,WeatherDisplay:10.37,2013-02-16 14:23:00,
2013-02-16 09:28:00,44.6,44.6,29.88,NNW,340,6.9,6.9,100,0.00,CLR,,0.00,WeatherDisplay:10.37,2013-02-16 14:28:00,
2013-02-16 09:33:00,46.4,44.5,29.88,NNW,340,4.6,4.6,93,0.00,CLR,,0.00,WeatherDisplay:10.37,2013-02-16 14:33:00,
2013-02-16 09:38:00,46.4,44.5,29.88,NNW,340,4.6,4.6,93,0.00,CLR,,0.00,WeatherDisplay:10.37,2013-02-16 14:38:00,
2013-02-16 09:43:00,46.4,44.5,29.88,NNW,340,4.6,4.6,93,0.00,CLR,,0.00,WeatherDisplay:10.37,2013-02-16 14:43:00,
2013-02-16 09:48:00,46.4,44.5,29.88,NNW,340,4.6,4.6,93,0.00,CLR,,0.00,WeatherDisplay:10.37,2013-02-16 14:48:00,
2013-02-16 09:53:00,46.4,44.5,29.88,NW,320,9.2,9.2,93,0.00,SCT,,0.00,WeatherDisplay:10.37,2013-02-16 14:53:00,
2013-02-16 09:58:00,46.4,44.5,29.88,NW,320,9.2,9.2,93,0.00,SCT,,0.00,WeatherDisplay:10.37,2013-02-16 14:58:00,
2013-02-16 10:03:00,46.4,44.5,29.88,NW,320,9.2,9.2,93,0.00,SCT,,0.00,WeatherDisplay:10.37,2013-02-16 15:03:00,
2013-02-16 10:08:00,46.4,44.5,29.88,NW,320,9.2,9.2,93,0.00,SCT,,0.00,WeatherDisplay:10.37,2013-02-16 15:08:00,
2013-02-16 10:13:00,46.4,44.5,29.88,North,360,9.2,9.2,93,0.00,BKN,,0.00,WeatherDisplay:10.37,2013-02-16 15:13:00,
2013-02-16 10:18:00,46.4,44.5,29.88,North,360,9.2,9.2,93,0.00,BKN,,0.00,WeatherDisplay:10.37,2013-02-16 15:18:00,
2013-02-16 10:23:00,46.4,44.5,29.88,North,360,9.2,9.2,93,0.00,BKN,,0.00,WeatherDisplay:10.37,2013-02-16 15:23:00,
2013-02-16 10:28:00,46.4,44.5,29.88,North,360,9.2,9.2,93,0.00,BKN,,0.00,WeatherDisplay:10.37,2013-02-16 15:28:00,
2013-02-16 10:33:00,46.4,44.5,29.88,North,10,8.1,8.1,93,0.00,SCT,,0.00,WeatherDisplay:10.37,2013-02-16 15:33:00,
2013-02-16 10:38:00,46.4,44.5,29.88,North,10,8.1,8.1,93,0.00,SCT,,0.00,WeatherDisplay:10.37,2013-02-16 15:38:00,
2013-02-16 10:43:00,46.4,44.5,29.88,North,10,8.1,8.1,93,0.00,SCT,,0.00,WeatherDisplay:10.37,2013-02-16 15:43:00,
2013-02-16 10:48:00,46.4,44.5,29.88,North,10,8.1,8.1,93,0.00,SCT,,0.00,WeatherDisplay:10.37,2013-02-16 15:48:00,
2013-02-16 10:53:00,50.0,42.7,29.87,North,360,6.9,6.9,76,0.00,CLR,,0.00,WeatherDisplay:10.37,2013-02-16 15:53:00,
2013-02-16 10:58:00,50.0,42.7,29.87,North,360,6.9,6.9,76,0.00,CLR,,0.00,WeatherDisplay:10.37,2013-02-16 15:58:00,
2013-02-16 11:03:00,50.0,42.7,29.87,North,360,6.9,6.9,76,0.00,CLR,,0.00,WeatherDisplay:10.37,2013-02-16 16:03:00,
2013-02-16 11:08:00,50.0,42.7,29.87,North,360,6.9,6.9,76,0.00,CLR,,0.00,WeatherDisplay:10.37,2013-02-16 16:08:00,
2013-02-16 11:13:00,50.0,42.7,29.87,North,360,6.9,6.9,76,0.00,CLR,,0.00,WeatherDisplay:10.37,2013-02-16 16:13:00,
2013-02-16 11:18:00,50.0,42.7,29.87,North,360,6.9,6.9,76,0.00,CLR,,0.00,WeatherDisplay:10.37,2013-02-16 16:18:00,
2013-02-16 11:23:00,50.0,42.7,29.87,North,360,6.9,6.9,76,0.00,CLR,,0.00,WeatherDisplay:10.37,2013-02-16 16:23:00,
2013-02-16 11:28:00,50.0,42.7,29.87,North,360,6.9,6.9,76,0.00,CLR,,0.00,WeatherDisplay:10.37,2013-02-16 16:28:00,
2013-02-16 11:33:00,50.0,42.7,29.87,North,360,6.9,6.9,76,0.00,CLR,,0.00,WeatherDisplay:10.37,2013-02-16 16:33:00,
2013-02-16 11:38:00,50.0,42.7,29.87,North,360,6.9,6.9,76,0.00,CLR,,0.00,WeatherDisplay:10.37,2013-02-16 16:38:00,
2013-02-16 11:43:00,50.0,42.7,29.87,North,360,6.9,6.9,76,0.00,CLR,,0.00,WeatherDisplay:10.37,2013-02-16 16:43:00,
2013-02-16 11:48:00,50.0,42.7,29.87,North,360,6.9,6.9,76,0.00,CLR,,0.00,WeatherDisplay:10.37,2013-02-16 16:48:00,
2013-02-16 11:53:00,50.0,42.7,29.87,North,360,6.9,6.9,76,0.00,CLR,,0.00,WeatherDisplay:10.37,2013-02-16 16:53:00,
2013-02-16 11:58:00,50.0,42.7,29.87,North,360,6.9,6.9,76,0.00,CLR,,0.00,WeatherDisplay:10.37,2013-02-16 16:58:00,
2013-02-16 12:03:00,50.0,42.7,29.87,North,360,6.9,6.9,76,0.00,CLR,,0.00,WeatherDisplay:10.37,2013-02-16 17:03:00,
2013-02-16 12:08:00,50.0,42.7,29.87,North,360,6.9,6.9,76,0.00,CLR,,0.00,WeatherDisplay:10.37,2013-02-16 17:08:00,
2013-02-16 12:13:00,50.0,42.7,29.87,North,360,6.9,6.9,76,0.00,CLR,,0.00,WeatherDisplay:10.37,2013-02-16 17:13:00,
2013-02-16 12:18:00,50.0,42.7,29.87,North,360,6.9,6.9,76,0.00,CLR,,0.00,WeatherDisplay:10.37,2013-02-16 17:18:00,
2013-02-16 12:23:00,50.0,42.7,29.87,North,360,6.9,6.9,76,0.00,CLR,,0.00,WeatherDisplay:10.37,2013-02-16 17:23:00,
2013-02-16 12:28:00,50.0,42.7,29.87,North,360,6.9,6.9,76,0.00,CLR,,0.00,WeatherDisplay:10.37,2013-02-16 17:28:00,
2013-02-16 12:33:00,50.0,42.7,29.87,North,360,6.9,6.9,76,0.00,CLR,,0.00,WeatherDisplay:10.37,2013-02-16 17:33:00,
2013-02-16 12:38:00,50.0,42.7,29.87,North,360,6.9,6.9,76,0.00,CLR,,0.00,WeatherDisplay:10.37,2013-02-16 17:38:00,
2013-02-16 12:43:00,50.0,42.7,29.87,North,360,6.9,6.9,76,0.00,CLR,,0.00,WeatherDisplay:10.37,2013-02-16 17:43:00,
2013-02-16 12:48:00,50.0,42.7,29.87,North,360,6.9,6.9,76,0.00,CLR,,0.00,WeatherDisplay:10.37,2013-02-16 17:48:00,
2013-02-16 12:53:00,50.0,42.7,29.87,North,360,6.9,6.9,76,0.00,CLR,,0.00,WeatherDisplay:10.37,2013-02-16 17:53:00,
2013-02-16 12:58:00,50.0,42.7,29.87,North,360,6.9,6.9,76,0.00,CLR,,0.00,WeatherDisplay:10.37,2013-02-16 17:58:00,
2013-02-16 13:03:00,50.0,42.7,29.87,North,360,6.9,6.9,76,0.00,CLR,,0.00,WeatherDisplay:10.37,2013-02-16 18:03:00,
2013-02-16 13:08:00,50.0,42.7,29.87,North,360,6.9,6.9,76,0.00,CLR,,0.00,WeatherDisplay:10.37,2013-02-16 18:08:00,
2013-02-16 13:13:00,50.0,42.7,29.87,North,360,6.9,6.9,76,0.00,CLR,,0.00,WeatherDisplay:10.37,2013-02-16 18:13:00,
2013-02-16 13:18:00,50.0,42.7,29.87,North,360,6.9,6.9,76,0.00,CLR,,0.00,WeatherDisplay:10.37,2013-02-16 18:18:00,
2013-02-16 13:23:00,50.0,37.1,29.83,NW,320,23.0,23.0,61,0.00,OVC,,0.00,WeatherDisplay:10.37,2013-02-16 18:23:00,
2013-02-16 13:28:00,50.0,37.1,29.83,NW,320,23.0,23.0,61,0.00,OVC,,0.00,WeatherDisplay:10.37,2013-02-16 18:28:00,
2013-02-16 13:33:00,50.0,37.1,29.83,NW,320,23.0,23.0,61,0.00,OVC,,0.00,WeatherDisplay:10.37,2013-02-16 18:33:00,
2013-02-16 13:38:00,50.0,37.1,29.83,NW,320,23.0,23.0,61,0.00,OVC,,0.00,WeatherDisplay:10.37,2013-02-16 18:38:00,
2013-02-16 13:43:00,48.2,37.4,29.83,NW,310,27.6,27.6,66,0.00,OVC,,0.00,WeatherDisplay:10.37,2013-02-16 18:43:00,
2013-02-16 13:48:00,48.2,37.4,29.83,NW,310,27.6,27.6,66,0.00,OVC,,0.00,WeatherDisplay:10.37,2013-02-16 18:48:00,
2013-02-16 13:53:00,48.2,37.4,29.83,NW,310,27.6,27.6,66,0.00,OVC,,0.00,WeatherDisplay:10.37,2013-02-16 18:53:00,
2013-02-16 13:58:00,48.2,37.4,29.83,NW,310,27.6,27.6,66,0.00,OVC,,0.00,WeatherDisplay:10.37,2013-02-16 18:58:00,
2013-02-16 14:03:00,44.6,41.0,29.84,NW,310,18.4,18.4,87,0.00,OVC,,0.00,WeatherDisplay:10.37,2013-02-16 19:03:00,
2013-02-16 14:08:00,44.6,41.0,29.84,NW,310,18.4,18.4,87,0.00,OVC,,0.00,WeatherDisplay:10.37,2013-02-16 19:08:00,
2013-02-16 14:13:00,44.6,41.0,29.84,NW,310,18.4,18.4,87,0.00,OVC,,0.00,WeatherDisplay:10.37,2013-02-16 19:13:00,
2013-02-16 14:18:00,44.6,41.0,29.84,NW,310,18.4,18.4,87,0.00,OVC,,0.00,WeatherDisplay:10.37,2013-02-16 19:18:00,
2013-02-16 14:23:00,44.6,41.0,29.84,NW,310,18.4,18.4,87,0.00,OVC,,0.00,WeatherDisplay:10.37,2013-02-16 19:23:00,
2013-02-16 14:28:00,44.6,41.0,29.84,NW,310,18.4,18.4,87,0.00,OVC,,0.00,WeatherDisplay:10.37,2013-02-16 19:28:00,
2013-02-16 14:33:00,41.0,37.1,29.86,NW,320,33.4,33.4,86,0.00,-RA,,0.00,WeatherDisplay:10.37,2013-02-16 19:33:00,
2013-02-16 14:38:00,41.0,37.1,29.86,NW,320,33.4,33.4,86,0.00,-RA,,0.00,WeatherDisplay:10.37,2013-02-16 19:38:00,
2013-02-16 14:43:00,41.0,37.1,29.86,NW,320,33.4,33.4,86,0.00,-RA,,0.00,WeatherDisplay:10.37,2013-02-16 19:43:00,
2013-02-16 14:48:00,41.0,37.1,29.86,NW,320,33.4,33.4,86,0.00,-RA,,0.00,WeatherDisplay:10.37,2013-02-16 19:48:00,
2013-02-16 14:53:00,37.4,37.4,29.86,NNW,330,29.9,29.9,100,0.00,OVC,,0.00,WeatherDisplay:10.37,2013-02-16 19:53:00,
2013-02-16 14:58:00,37.4,37.4,29.86,NNW,330,29.9,29.9,100,0.00,OVC,,0.00,WeatherDisplay:10.37,2013-02-16 19:58:00,
2013-02-16 15:03:00,37.4,37.4,29.86,NNW,330,29.9,29.9,100,0.00,OVC,,0.00,WeatherDisplay:10.37,2013-02-16 20:03:00,
2013-02-16 15:08:00,37.4,37.4,29.86,NNW,330,29.9,29.9,100,0.00,OVC,,0.00,WeatherDisplay:10.37,2013-02-16 20:08:00,
2013-02-16 15:13:00,37.4,37.4,29.87,NNW,330,19.6,19.6,100,0.00,-RA,,0.00,WeatherDisplay:10.37,2013-02-16 20:13:00,
2013-02-16 15:18:00,37.4,37.4,29.87,NNW,330,19.6,19.6,100,0.00,-RA,,0.00,WeatherDisplay:10.37,2013-02-16 20:18:00,
2013-02-16 15:23:00,37.4,37.4,29.87,NW,320,23.0,23.0,100,0.00,-RA,,0.00,WeatherDisplay:10.37,2013-02-16 20:23:00,
2013-02-16 15:28:00,37.4,37.4,29.87,NW,320,23.0,23.0,100,0.00,-RA,,0.00,WeatherDisplay:10.37,2013-02-16 20:28:00,
2013-02-16 15:33:00,37.4,37.4,29.87,NW,320,23.0,23.0,100,0.00,-RA,,0.00,WeatherDisplay:10.37,2013-02-16 20:33:00,
2013-02-16 15:38:00,37.4,37.4,29.87,NW,320,23.0,23.0,100,0.00,-RA,,0.00,WeatherDisplay:10.37,2013-02-16 20:38:00,
2013-02-16 15:43:00,37.4,37.4,29.87,NW,320,23.0,23.0,100,0.00,-RA,,0.00,WeatherDisplay:10.37,2013-02-16 20:43:00,
2013-02-16 15:48:00,37.4,37.4,29.87,NW,320,23.0,23.0,100,0.00,-RA,,0.00,WeatherDisplay:10.37,2013-02-16 20:48:00,
2013-02-16 15:53:00,37.4,37.4,29.87,NW,310,20.7,20.7,100,0.00,-RA,,0.00,WeatherDisplay:10.37,2013-02-16 20:53:00,
2013-02-16 15:58:00,37.4,37.4,29.87,NW,310,20.7,20.7,100,0.00,-RA,,0.00,WeatherDisplay:10.37,2013-02-16 20:58:00,
2013-02-16 16:03:00,37.4,37.4,29.87,NW,310,20.7,20.7,100,0.00,-RA,,0.00,WeatherDisplay:10.37,2013-02-16 21:03:00,
2013-02-16 16:08:00,37.4,37.4,29.87,NW,310,20.7,20.7,100,0.00,-RA,,0.00,WeatherDisplay:10.37,2013-02-16 21:08:00,
2013-02-16 16:13:00,37.4,37.4,29.88,WNW,300,20.7,20.7,100,0.00,-RA,,0.00,WeatherDisplay:10.37,2013-02-16 21:13:00,
2013-02-16 16:18:00,37.4,37.4,29.88,WNW,300,20.7,20.7,100,0.00,-RA,,0.00,WeatherDisplay:10.37,2013-02-16 21:18:00,
2013-02-16 16:23:00,37.4,37.4,29.88,WNW,300,20.7,20.7,100,0.00,-RA,,0.00,WeatherDisplay:10.37,2013-02-16 21:23:00,
2013-02-16 16:28:00,37.4,37.4,29.88,WNW,300,20.7,20.7,100,0.00,-RA,,0.00,WeatherDisplay:10.37,2013-02-16 21:28:00,
2013-02-16 16:33:00,37.4,37.4,29.87,NW,310,9.2,9.2,100,0.00,-RA,,0.00,WeatherDisplay:10.37,2013-02-16 21:33:00,
2013-02-16 16:38:00,37.4,37.4,29.87,NW,310,9.2,9.2,100,0.00,-RA,,0.00,WeatherDisplay:10.37,2013-02-16 21:38:00,
2013-02-16 16:43:00,37.4,37.4,29.87,NW,310,9.2,9.2,100,0.00,-RA,,0.00,WeatherDisplay:10.37,2013-02-16 21:43:00,
2013-02-16 16:48:00,37.4,37.4,29.87,NW,310,9.2,9.2,100,0.00,-RA,,0.00,WeatherDisplay:10.37,2013-02-16 21:48:00,
2013-02-16 16:53:00,37.4,37.4,29.84,NW,310,0.0,0.0,100,0.00,OVC,,0.00,WeatherDisplay:10.37,2013-02-16 21:53:00,
2013-02-16 16:58:00,37.4,37.4,29.84,NW,310,0.0,0.0,100,0.00,OVC,,0.00,WeatherDisplay:10.37,2013-02-16 21:58:00,
2013-02-16 17:03:00,37.4,37.4,29.84,NW,310,0.0,0.0,100,0.00,OVC,,0.00,WeatherDisplay:10.37,2013-02-16 22:03:00,
2013-02-16 17:08:00,37.4,37.4,29.84,NW,310,0.0,0.0,100,0.00,OVC,,0.00,WeatherDisplay:10.37,2013-02-16 22:08:00,
2013-02-16 17:13:00,37.4,37.4,29.84,NW,310,0.0,0.0,100,0.00,OVC,,0.00,WeatherDisplay:10.37,2013-02-16 22:13:00,
2013-02-16 17:18:00,37.4,37.4,29.84,NW,310,0.0,0.0,100,0.00,OVC,,0.00,WeatherDisplay:10.37,2013-02-16 22:18:00,
2013-02-16 17:23:00,37.4,37.4,29.86,NW,310,5.8,5.8,100,0.00,OVC,,0.00,WeatherDisplay:10.37,2013-02-16 22:23:00,
2013-02-16 17:28:00,37.4,37.4,29.86,NW,310,5.8,5.8,100,0.00,OVC,,0.00,WeatherDisplay:10.37,2013-02-16 22:28:00,
2013-02-16 17:33:00,37.4,37.4,29.86,NW,310,5.8,5.8,100,0.00,OVC,,0.00,WeatherDisplay:10.37,2013-02-16 22:33:00,
2013-02-16 17:38:00,37.4,37.4,29.86,NW,310,5.8,5.8,100,0.00,OVC,,0.00,WeatherDisplay:10.37,2013-02-16 22:38:00,
2013-02-16 17:43:00,37.4,37.4,29.86,NW,310,5.8,5.8,100,0.00,OVC,,0.00,WeatherDisplay:10.37,2013-02-16 22:43:00,
2013-02-16 17:48:00,37.4,37.4,29.86,NW,310,5.8,5.8,100,0.00,OVC,,0.00,WeatherDisplay:10.37,2013-02-16 22:48:00,
2013-02-16 17:53:00,37.4,37.4,29.86,NW,310,5.8,5.8,100,0.00,OVC,,0.00,WeatherDisplay:10.37,2013-02-16 22:53:00,
2013-02-16 17:58:00,37.4,37.4,29.86,NW,310,5.8,5.8,100,0.00,OVC,,0.00,WeatherDisplay:10.37,2013-02-16 22:58:00,
2013-02-16 18:03:00,37.4,37.4,29.87,NW,310,8.1,8.1,100,0.00,OVC,,0.00,WeatherDisplay:10.37,2013-02-16 23:03:00,
2013-02-16 18:08:00,37.4,37.4,29.87,NW,310,8.1,8.1,100,0.00,OVC,,0.00,WeatherDisplay:10.37,2013-02-16 23:08:00,
2013-02-16 18:13:00,37.4,37.4,29.87,NW,310,8.1,8.1,100,0.00,OVC,,0.00,WeatherDisplay:10.37,2013-02-16 23:13:00,
2013-02-16 18:18:00,37.4,37.4,29.87,NW,310,8.1,8.1,100,0.00,OVC,,0.00,WeatherDisplay:10.37,2013-02-16 23:18:00,
2013-02-16 18:23:00,37.4,37.4,29.87,NW,310,8.1,8.1,100,0.00,OVC,,0.00,WeatherDisplay:10.37,2013-02-16 23:23:00,
2013-02-16 18:28:00,37.4,37.4,29.87,NW,310,8.1,8.1,100,0.00,OVC,,0.00,WeatherDisplay:10.37,2013-02-16 23:28:00,
2013-02-16 18:33:00,37.4,37.4,29.87,NW,310,8.1,8.1,100,0.00,OVC,,0.00,WeatherDisplay:10.37,2013-02-16 23:33:00,
2013-02-16 18:38:00,37.4,37.4,29.87,NW,310,8.1,8.1,100,0.00,OVC,,0.00,WeatherDisplay:10.37,2013-02-16 23:38:00,
2013-02-16 18:43:00,37.4,37.4,29.88,WNW,300,20.7,20.7,100,0.00,OVC,,0.00,WeatherDisplay:10.37,2013-02-16 23:43:00,
2013-02-16 18:48:00,37.4,37.4,29.88,WNW,300,20.7,20.7,100,0.00,OVC,,0.00,WeatherDisplay:10.37,2013-02-16 23:48:00,
2013-02-16 18:53:00,37.4,37.4,29.89,WNW,290,4.6,4.6,100,0.00,OVC,,0.00,WeatherDisplay:10.37,2013-02-16 23:53:00,
2013-02-16 18:58:00,37.4,37.4,29.89,WNW,290,4.6,4.6,100,0.00,OVC,,0.00,WeatherDisplay:10.37,2013-02-16 23:58:00,
2013-02-16 19:03:00,37.4,37.4,29.89,WNW,290,4.6,4.6,100,0.00,OVC,,0.00,WeatherDisplay:10.37,2013-02-17 00:03:00,
2013-02-16 19:08:00,37.4,37.4,29.89,WNW,290,4.6,4.6,100,0.00,OVC,,0.00,WeatherDisplay:10.37,2013-02-17 00:08:00,
2013-02-16 19:13:00,37.4,37.4,29.89,WNW,290,4.6,4.6,100,0.00,OVC,,0.00,WeatherDisplay:10.37,2013-02-17 00:13:00,
2013-02-16 19:18:00,37.4,37.4,29.89,WNW,290,4.6,4.6,100,0.00,OVC,,0.00,WeatherDisplay:10.37,2013-02-17 00:18:00,
2013-02-16 19:23:00,37.4,37.4,29.89,WNW,290,4.6,4.6,100,0.00,BKN,,0.00,WeatherDisplay:10.37,2013-02-17 00:23:00,
2013-02-16 19:28:00,37.4,37.4,29.89,WNW,290,4.6,4.6,100,0.00,BKN,,0.00,WeatherDisplay:10.37,2013-02-17 00:28:00,
2013-02-16 19:33:00,37.4,37.4,29.89,WNW,290,4.6,4.6,100,0.00,BKN,,0.00,WeatherDisplay:10.37,2013-02-17 00:33:00,
2013-02-16 19:38:00,37.4,37.4,29.89,WNW,290,4.6,4.6,100,0.00,BKN,,0.00,WeatherDisplay:10.37,2013-02-17 00:38:00,
2013-02-16 19:43:00,37.4,37.4,29.89,WNW,290,4.6,4.6,100,0.00,BKN,,0.00,WeatherDisplay:10.37,2013-02-17 00:43:00,
2013-02-16 19:48:00,37.4,37.4,29.89,WNW,290,4.6,4.6,100,0.00,BKN,,0.00,WeatherDisplay:10.37,2013-02-17 00:48:00,
2013-02-16 19:53:00,35.6,35.6,29.90,WSW,240,4.6,4.6,100,0.00,BKN,,0.00,WeatherDisplay:10.37,2013-02-17 00:53:00,
2013-02-16 19:58:00,35.6,35.6,29.90,WSW,240,4.6,4.6,100,0.00,BKN,,0.00,WeatherDisplay:10.37,2013-02-17 00:58:00,
2013-02-16 20:03:00,35.6,35.6,29.90,WSW,240,4.6,4.6,100,0.00,BKN,,0.00,WeatherDisplay:10.37,2013-02-17 01:03:00,
2013-02-16 20:08:00,35.6,35.6,29.90,WSW,240,4.6,4.6,100,0.00,BKN,,0.00,WeatherDisplay:10.37,2013-02-17 01:08:00,
2013-02-16 20:13:00,37.4,37.4,29.90,West,260,5.8,5.8,100,0.00,OVC,,0.00,WeatherDisplay:10.37,2013-02-17 01:13:00,
2013-02-16 20:18:00,37.4,37.4,29.90,West,260,5.8,5.8,100,0.00,OVC,,0.00,WeatherDisplay:10.37,2013-02-17 01:18:00,
2013-02-16 20:23:00,37.4,37.4,29.90,West,260,5.8,5.8,100,0.00,OVC,,0.00,WeatherDisplay:10.37,2013-02-17 01:23:00,
2013-02-16 20:28:00,37.4,37.4,29.90,West,260,5.8,5.8,100,0.00,OVC,,0.00,WeatherDisplay:10.37,2013-02-17 01:28:00,
2013-02-16 20:33:00,35.6,35.6,29.91,West,270,28.8,28.8,100,0.00,-RA,,0.00,WeatherDisplay:10.37,2013-02-17 01:33:00,
2013-02-16 20:38:00,35.6,35.6,29.91,West,270,28.8,28.8,100,0.00,-RA,,0.00,WeatherDisplay:10.37,2013-02-17 01:38:00,
2013-02-16 20:43:00,35.6,35.6,29.91,West,270,28.8,28.8,100,0.00,-RA,,0.00,WeatherDisplay:10.37,2013-02-17 01:43:00,
2013-02-16 20:48:00,35.6,35.6,29.91,West,270,28.8,28.8,100,0.00,-RA,,0.00,WeatherDisplay:10.37,2013-02-17 01:48:00,
2013-02-16 20:53:00,35.6,35.6,29.91,WSW,250,26.5,26.5,100,0.00,-RA,,0.00,WeatherDisplay:10.37,2013-02-17 01:53:00,
2013-02-16 20:58:00,35.6,35.6,29.91,WSW,250,26.5,26.5,100,0.00,-RA,,0.00,WeatherDisplay:10.37,2013-02-17 01:58:00,
2013-02-16 21:03:00,35.6,35.6,29.91,WSW,250,26.5,26.5,100,0.00,-RA,,0.00,WeatherDisplay:10.37,2013-02-17 02:03:00,
2013-02-16 21:08:00,35.6,35.6,29.91,WSW,250,26.5,26.5,100,0.00,-RA,,0.00,WeatherDisplay:10.37,2013-02-17 02:08:00,
2013-02-16 21:13:00,35.6,35.6,29.91,WSW,250,26.5,26.5,100,0.00,-RA,,0.00,WeatherDisplay:10.37,2013-02-17 02:13:00,
2013-02-16 21:18:00,35.6,35.6,29.91,WSW,250,26.5,26.5,100,0.00,-RA,,0.00,WeatherDisplay:10.37,2013-02-17 02:18:00,
2013-02-16 21:23:00,35.6,35.6,29.93,West,280,20.7,20.7,100,0.00,OVC,,0.00,WeatherDisplay:10.37,2013-02-17 02:23:00,
2013-02-16 21:28:00,35.6,35.6,29.93,West,280,20.7,20.7,100,0.00,OVC,,0.00,WeatherDisplay:10.37,2013-02-17 02:28:00,
2013-02-16 21:33:00,35.6,35.6,29.93,West,280,20.7,20.7,100,0.00,OVC,,0.00,WeatherDisplay:10.37,2013-02-17 02:33:00,
2013-02-16 21:38:00,35.6,35.6,29.93,West,280,20.7,20.7,100,0.00,OVC,,0.00,WeatherDisplay:10.37,2013-02-17 02:38:00,
2013-02-16 21:43:00,35.6,35.6,29.93,West,280,20.7,20.7,100,0.00,OVC,,0.00,WeatherDisplay:10.37,2013-02-17 02:43:00,
2013-02-16 21:48:00,35.6,35.6,29.93,West,280,20.7,20.7,100,0.00,OVC,,0.00,WeatherDisplay:10.37,2013-02-17 02:48:00,
2013-02-16 21:53:00,35.6,35.6,29.94,WNW,290,26.5,26.5,100,0.00,OVC,,0.00,WeatherDisplay:10.37,2013-02-17 02:53:00,
2013-02-16 21:58:00,35.6,35.6,29.94,WNW,290,26.5,26.5,100,0.00,OVC,,0.00,WeatherDisplay:10.37,2013-02-17 02:58:00,
2013-02-16 22:03:00,35.6,35.6,29.95,WNW,300,26.5,26.5,100,0.00,OVC,,0.00,WeatherDisplay:10.37,2013-02-17 03:03:00,
2013-02-16 22:08:00,35.6,35.6,29.95,WNW,300,26.5,26.5,100,0.00,OVC,,0.00,WeatherDisplay:10.37,2013-02-17 03:08:00,
2013-02-16 22:13:00,35.6,35.6,29.95,WNW,300,26.5,26.5,100,0.00,OVC,,0.00,WeatherDisplay:10.37,2013-02-17 03:13:00,
2013-02-16 22:18:00,35.6,35.6,29.95,WNW,300,26.5,26.5,100,0.00,OVC,,0.00,WeatherDisplay:10.37,2013-02-17 03:18:00,
2013-02-16 22:23:00,35.6,33.8,29.97,NW,310,36.8,36.8,93,0.00,-RA,,0.00,WeatherDisplay:10.37,2013-02-17 03:23:00,
2013-02-16 22:28:00,35.6,33.8,29.97,NW,310,36.8,36.8,93,0.00,-RA,,0.00,WeatherDisplay:10.37,2013-02-17 03:28:00,
2013-02-16 22:33:00,35.6,33.8,29.97,NW,310,36.8,36.8,93,0.00,-RA,,0.00,WeatherDisplay:10.37,2013-02-17 03:33:00,
2013-02-16 22:38:00,35.6,33.8,29.97,NW,310,36.8,36.8,93,0.00,-RA,,0.00,WeatherDisplay:10.37,2013-02-17 03:38:00,
2013-02-16 22:43:00,35.6,33.8,29.97,NW,310,36.8,36.8,93,0.00,-RA,,0.00,WeatherDisplay:10.37,2013-02-17 03:43:00,
2013-02-16 22:48:00,35.6,33.8,29.97,NW,310,36.8,36.8,93,0.00,-RA,,0.00,WeatherDisplay:10.37,2013-02-17 03:48:00,
2013-02-16 22:53:00,33.8,33.8,29.98,NW,320,33.4,33.4,100,0.00,-SN,,0.00,WeatherDisplay:10.37,2013-02-17 03:53:00,
2013-02-16 22:58:00,33.8,33.8,29.98,NW,320,33.4,33.4,100,0.00,-SN,,0.00,WeatherDisplay:10.37,2013-02-17 03:58:00,
2013-02-16 23:03:00,33.8,33.8,29.98,NW,320,33.4,33.4,100,0.00,-SN,,0.00,WeatherDisplay:10.37,2013-02-17 04:03:00,
2013-02-16 23:08:00,33.8,33.8,29.98,NW,320,33.4,33.4,100,0.00,-SN,,0.00,WeatherDisplay:10.37,2013-02-17 04:08:00,
2013-02-16 23:13:00,33.8,33.8,29.99,NW,320,27.6,27.6,100,0.00,-SN,,0.00,WeatherDisplay:10.37,2013-02-17 04:13:00,
2013-02-16 23:18:00,33.8,33.8,29.99,NW,320,27.6,27.6,100,0.00,-SN,,0.00,WeatherDisplay:10.37,2013-02-17 04:18:00,
2013-02-16 23:23:00,33.8,33.8,29.99,NW,320,27.6,27.6,100,0.00,-SN,,0.00,WeatherDisplay:10.37,2013-02-17 04:23:00,
2013-02-16 23:28:00,33.8,33.8,29.99,NW,320,27.6,27.6,100,0.00,-SN,,0.00,WeatherDisplay:10.37,2013-02-17 04:28:00,
2013-02-16 23:33:00,32.0,32.0,30.00,NW,310,27.6,27.6,100,0.00,-SN,,0.00,WeatherDisplay:10.37,2013-02-17 04:33:00,
2013-02-16 23:38:00,32.0,32.0,30.00,NW,310,27.6,27.6,100,0.00,-SN,,0.00,WeatherDisplay:10.37,2013-02-17 04:38:00,
2013-02-16 23:43:00,32.0,32.0,30.01,NW,310,19.6,19.6,100,0.00,OVC,,0.00,WeatherDisplay:10.37,2013-02-17 04:43:00,
2013-02-16 23:48:00,32.0,32.0,30.01,NW,310,19.6,19.6,100,0.00,OVC,,0.00,WeatherDisplay:10.37,2013-02-17 04:48:00,
2013-02-16 23:53:00,32.0,32.0,30.01,NW,310,19.6,19.6,100,0.00,OVC,,0.00,WeatherDisplay:10.37,2013-02-17 04:53:00,
2013-02-16 23:58:00,32.0,32.0,30.01,NW,310,19.6,19.6,100,0.00,OVC,,0.00,WeatherDisplay:10.37,2013-02-17 04:58:00,